Davao, Philippines

2:00 AM +08 on February 26, 2018 (GMT +0800)
Bangoy International

Weather History for RPMD - October, 2012

Change the Weather History Date:

Friday, October 19, 2012

  Actual Average Record
Temperature  
Mean Temperature 82 °F -  
Max Temperature 87 °F - - ()
Min Temperature 76 °F - - ()
Cooling Degree Days 16    
Growing Degree Days 32 (Base 50)    
Moisture  
Dew Point 76 °F    
Average Humidity 81    
Maximum Humidity 94    
Minimum Humidity 67    
Precipitation  
Precipitation 0.00 in - - ()
Sea Level Pressure  
Sea Level Pressure 29.83 in    
Wind  
Wind Speed 5 mph ()    
Max Wind Speed 9 mph    
Max Gust Speed -    
Visibility 6.6 miles    
Events Rain    
T = Trace of Precipitation, MM = Missing Value Source: Averaged Metar Reports

Daily Weather History Graph

Daily Weather History Graph

Search for Another Location

Airport or City:

Trip Planner

Search our weather history database for the weather conditions in past years. The results will help you decide how hot, cold, wet, or windy it might be!

Date:

Astronomy

Oct. 19, 2012 Rise Set
Actual Time 5:24 AM +08 5:20 PM +08
Civil Twilight 5:02 AM +08 5:41 PM +08
Nautical Twilight 4:38 AM +08 6:06 PM +08
Astronomical Twilight 4:13 AM +08 6:30 PM +08
Moon 8:52 AM +08 (10/19) 8:58 PM +08 (10/19)
Length of Visible Light 12h 38m
Length of Day
11h 56m
Waxing Crescent, 18% of the Moon is Illuminated
Oct 19
Waxing Crescent
Oct 22
First Quarter
Oct 30
Full
Nov 7
Last Quarter
Nov 14
New

Hourly Weather History & Observations

Time (+08) Temp. Heat Index Dew Point Humidity Pressure Visibility Wind Dir Wind Speed Gust Speed Precip Events Conditions
2:00 AM 79 °F - 76 °F 89% 29.83 in 6 mi North 6.7 mph - - Rain Light Rain
5:00 AM 77 °F - 75 °F 93% 29.82 in 5 mi North 4.5 mph - - Rain Light Rain
5:00 AM 77.0 °F - 75.2 °F 94% - 5.0 mi North 4.6 mph - N/A   Overcast
6:00 AM 77.0 °F - 75.2 °F 94% 29.83 in 6.2 mi North 4.6 mph - N/A   Overcast
7:00 AM 77.0 °F - 75.2 °F 94% 29.86 in - North - - N/A   Mostly Cloudy
8:00 AM 77 °F - 75 °F 92% 29.90 in 5 mi North 8.9 mph - - Rain Light Rain
8:00 AM 77.0 °F - 75.2 °F 94% 29.92 in 5.0 mi North 9.2 mph - N/A   Overcast
9:00 AM 80.6 °F 86.2 °F 75.2 °F 84% 29.92 in 6.2 mi North 9.2 mph - N/A   Mostly Cloudy
10:00 AM 82.4 °F 89.5 °F 75.2 °F 79% 29.89 in 6.2 mi North 4.6 mph - N/A   Mostly Cloudy
11:00 AM 83 °F - 77 °F 76% 29.85 in 9 mi North 4.5 mph - -   Haze
11:00 AM 84.2 °F 94.1 °F 77.0 °F 79% 29.86 in 6.2 mi North 4.6 mph - N/A   Mostly Cloudy
12:00 PM 84.2 °F 94.1 °F 77.0 °F 79% 29.83 in 6.2 mi North 4.6 mph - N/A   Mostly Cloudy
1:00 PM 86.0 °F 96.9 °F 77.0 °F 74% 29.80 in 6.2 mi North 6.9 mph - N/A   Mostly Cloudy
2:00 PM 87 °F - 78 °F 67% 29.77 in 9 mi North 4.5 mph - -   Haze
2:00 PM 86.0 °F 96.9 °F 77.0 °F 74% 29.77 in 6.2 mi North 4.6 mph - N/A   Mostly Cloudy
3:00 PM 87.8 °F 99.7 °F 77.0 °F 70% 29.77 in 6.2 mi North 6.9 mph - N/A   Mostly Cloudy
4:00 PM 87.8 °F 99.7 °F 77.0 °F 70% 29.77 in 6.2 mi North 9.2 mph - N/A   Mostly Cloudy
5:00 PM 85 °F - 76 °F 67% 29.76 in 9 mi North 8.9 mph - -   Haze
5:00 PM 84.2 °F 92.3 °F 75.2 °F 74% 29.77 in 6.2 mi North 9.2 mph - N/A   Mostly Cloudy
6:00 PM 82.4 °F 90.9 °F 77.0 °F 84% 29.80 in 6.2 mi North 6.9 mph - N/A   Mostly Cloudy
8:00 PM 82 °F - 76 °F 76% 29.82 in 9 mi North 6.7 mph - -   Haze
11:00 PM 80 °F - 76 °F 84% 29.84 in 9 mi Calm Calm - -   Haze